Location: Borojevi?i
(45.0486°N, 16.2297°E)
Time: 08:27:56
(UTC+00:00)

Cosmos 1535 Rocket - Pass Details

Date: 08 August 2020
Orbit: 949 x 1003 km, 83.0° (Epoch: 20 September)

Event Time Altitude Azimuth Distance (km) Brightness Sun altitude
Exits shadow 20:08:44 10° 189° (S) 2,662 6.4 -17.7°
Maximum altitude 20:14:49 85° 278° (W) 965 4.5 -18.5°
Drops below altitude 10° 20:20:58 10° 7° (N) 2,685 7.4 -19.2°
Sets 20:23:28 0° 8° (N) 3,633 8.1 -19.5°
